Location: Unspecified
(0.0000°N, 0.0000°E)
Time: 09:11:58
(UTC+00:00)

Vanguard 2 Rocket - Pass Details

Date: 20 December 2018
Orbit: 556 x 3325 km, 32.9° (Epoch: 22 March)

Event Time Altitude Azimuth Distance (km) Brightness Sun altitude
Rises 10:45:52 0° 329° (NNW) 3,329 9.5 60.8°
Reaches altitude 10° 10:48:14 10° 341° (NNW) 2,639 9.1 61.2°
Maximum altitude 10:53:51 31° 42° (NE) 2,093 9.1 61.9°
Drops below altitude 10° 11:02:46 10° 99° (E) 4,279 10.7 63.1°
Sets 11:07:48 0° 108° (ESE) 5,797 11.3 63.6°
